STARLINK-31186, 59030

Orbit data source: Space-Track

STARLINK-31186, 59030 is a payload satellite owned by SpaceX/Seattle (US) in LEO that was launched on Sun, 25 Feb 2024 UTC via an FALCON 9 launch vehicle from the Air Force Eastern Test Range (AFETR). Payload-class satellites include a variety of spacecraft equipped with specific instruments for various scientific and technological missions. These include communications satellites like Starlink; space stations such as the ISS; scientific satellites like the Hubble; Earth observation satellites from companies like Planet Labs, Umbra, and HawkEye 360; GPS; miniature CubeSats for education and research; and military/defense satellites.

Loading next visibility...
Identifier
59030, 2024-038H
Orbit
LEO
Country
Flag of USUS
Related business
Manufacturer
SpaceX/Seattle
Mission
Operational Commercial Communications
Bus & Motor
STARLINK V2M, Unknown motor
Mass
730 kg wet, ~700 kg dry
Launch date (UTC)
2024-02-25 (2 years ago)
Launch vehicle
FALCON 9
Launch site
Air Force Eastern Test Range (AFETR)
Object type
Payload
Rocket body
Debris
Shape & HBR
Box + 2 Pan, 17.7 m
Radar Cross Section
33.884 m², Large (>1 m²)

Expand to show TLE details & history
Last TLE update: 1 day ago

TLE from 1 day ago
0 STARLINK-31186
1 59030U 24038H   25348.73978154 -.00000248  00000-0  50517-6 0  9999
2 59030  43.0005 146.9852 0001344 269.3084  90.7614 15.27565670101766
Epoch: 2025-12-14T17:45Z
TLE epoch observation values (Epoch: 2025-12-14T17:45:17.125Z)
Latitude
0.00003°
Longitude
157.0155°
Altitude
482.88 km
Speed
7.626 km/s
True Right ascension
09h 47m 56s
True Declination
0° 00' 00"
Sunlit
Object was in full shadow at epoch
Visualization orbit readout
Latitude
Unknown
Longitude
Unknown
Altitude
Unknown
Speed
Unknown
Apparent Right ascension
Unknown
Apparent Declination
Unknown
Sunlit
N/A
Visualization observer readout
Local Sidereal Time
17:23:08
Azimuth
Unknown
Elevation
Unknown
Doppler factor
Unknown
Orbital elements
Apogee altitude
485.959 km
Perigee altitude
484.115 km
Semi-major axis
6,863.174 km
Eccentricity
0.00013
Inclination
43.0005°
RAAN
146.9852°
Arg. of periapsis
269.3084°
True anomaly
90.7768°
Mean anomaly
90.7614°
Eccentric anomaly
90.7691°
Mean motion
3.81729 °/min
Orbital period
94.31 mins
BSTAR
5.0517e-7
Loading maneuver chart data...
Computing Atmospheric mass density...
Loading historical data...
Loading historical data...
Loading historical data...
Loading historical data...
Loading historical data...
Loading historical data...
Loading historical data...

Documentation

Showing up to 5 results
|